Home   Weather   Aalen   Past weeks

Flag for Germany Past Weather in Aalen, Baden-Württemberg, Germany — Yesterday and Last 2 Weeks

Now
23 °F

Partly sunny.


Feels Like: 14 °F
Forecast: 5 / 20 °F
Wind: 8 mph from Northeast

Location: Niederstetten

Current Time: Jan 18, 2017 at 9:28:45 am

Latest Report: Jan 18, 2017 at 8:20 am


Visibility: N/A

Pressure: 30.54 "Hg

Humidity: 74%

Dew Point: 16 °F

Location of AalenLocation

Past Weather in Aalen — Graph

°F

Aalen Temperature Yesterday

Maximum temperature yesterday: 25 °F (at 12:20 pm)
Minimum temperature yesterday: 16 °F (at 12:20 am)
Average temperature yesterday: 22 °F

High & Low Weather Summary for the Past Weeks

 TemperatureHumidityPressure
High39 °F (Jan 13, 1:20 am)100% (Jan 3, 9:20 am)30.66 "Hg (Jan 3, 9:20 am)
Low7 °F (Jan 6, 5:20 am)54% (Jan 7, 1:20 pm)29.24 "Hg (Jan 13, 1:20 am)
Average27 °F87%30.06 "Hg
* Reported Jan 3 8:20 am — Jan 18 8:20 am, Aalen, Weather by CustomWeather, © 2017

Note: Actual official high and low records may vary slightly from our data, if they occured in-between our weather recording intervals... More about our weather records

Advertising

Aalen Weather History for the Previous 24 Hours

Scroll right to see more
 ConditionsComfort  
Time TempWeatherWind HumidityBarometerVisibility
8:20 am
Wed, Jan 18
23 °FPartly sunny.8 mph74%30.54 "HgN/A
7:20 am23 °FPassing clouds.16 mph68%30.51 "HgN/A
6:20 am23 °FPassing clouds.14 mph74%30.51 "HgN/A
5:20 am23 °FPassing clouds.15 mph74%30.51 "HgN/A
4:20 am23 °FPassing clouds.12 mph74%30.51 "HgN/A
3:20 am23 °FPassing clouds.15 mph74%30.51 "HgN/A
2:20 am23 °FLight snow. Passing clouds.14 mph74%30.51 "HgN/A
1:20 am23 °FLight snow. Passing clouds.12 mph80%30.51 "HgN/A
12:20 am23 °FLight snow. Mostly cloudy.12 mph80%30.51 "HgN/A
11:20 pm
Tue, Jan 17
23 °FLight snow. Overcast.10 mph80%30.51 "HgN/A
10:20 pm23 °FLight snow. Mostly cloudy.9 mph86%30.51 "HgN/A
9:20 pm25 °FLight snow. Overcast.10 mph80%30.51 "HgN/A
8:20 pm25 °FPassing clouds.10 mph74%30.51 "HgN/A
7:20 pm23 °FPassing clouds.9 mph80%30.48 "HgN/A
6:20 pm25 °FPassing clouds.9 mph74%30.48 "HgN/A
5:20 pm23 °FPassing clouds.8 mph74%30.48 "HgN/A
5:00 pm23 °FPassing clouds.9 mph80%30.45 "HgN/A
4:20 pm23 °FScattered clouds.9 mph80%30.45 "HgN/A
3:20 pm25 °FPartly sunny.10 mph80%30.45 "HgN/A
2:20 pm25 °FPartly sunny.15 mph74%30.45 "HgN/A
1:32 pm25 °FSnow flurries. Scattered clouds.13 mph74%30.45 "HgN/A
12:20 pm25 °FLight snow. Scattered clouds.12 mph74%30.45 "HgN/A
11:20 am23 °FPassing clouds.9 mph80%30.45 "HgN/A
10:20 am21 °FPassing clouds.9 mph86%30.45 "HgN/A
9:20 am21 °FPassing clouds.7 mph86%30.42 "HgN/A
Weather by CustomWeather, © 2017

See weather overviewHow to use our weather pages